[[{"header":{"parameterUnit":"m.s-1","parameterCategory":1,"la1":30.2991,"la2":30.254,"lo1":-89.0895,"lo2":-89.0444,"dy":0.0017,"dx":0.0017,"nx":28,"ny":28,"refTime":"2024-03-30T09:00:00:Z","depth":0,"parameterNumber":2,"parameterNumberName":"U-component_of_WINDS"},"data":[0,0,0,0,0,0,0,0,0,0,0,0,0,0,0,0,0,0,0,0,0,0,0,0,0,0,0,0,0,0,0,0,0,0,0,0,0,0,0,0,0,0,0,0,0,0,0,0,0,0,0,0,0,0,0,0,0,0,-1.4399,-1.4399,0,-1.4442,-1.4443,-1.4443,-1.4444,-1.4443,-1.4443,-1.4442,-1.4487,-1.4488,-1.449,0,0,0,0,0,0,0,0,0,0,0,0,0,-1.4316,-1.4318,-1.4399,-1.4399,-1.44,-1.4442,-1.4443,-1.4443,-1.4444,-1.4443,-1.4442,-1.4442,-1.4486,-1.4488,-1.449,0,0,0,0,0,0,0,0,0,0,0,0,0,-1.4355,-1.4318,-1.4399,-1.4405,-1.4406,-1.4442,-1.4443,-1.4443,-1.4444,-1.4443,-1.4442,-1.4442,-1.4485,-1.4488,-1.449,-1.4523,0,0,-1.4498,-1.4499,0,0,0,0,0,0,0,0,-1.4353,-1.4358,-1.4404,-1.4405,-1.4406,-1.4437,-1.443,-1.447,-1.4444,-1.443,-1.4442,-1.4441,-1.4471,-1.4474,-1.4484,-1.4525,-1.4526,-1.4498,-1.45,-1.4501,-1.4502,0,0,0,0,0,0,0,-1.435,-1.4356,-1.4416,-1.4404,-1.4406,-1.4406,-1.4411,-1.4437,-1.4454,-1.4431,-1.4431,-1.4436,-1.4471,-1.4482,-1.4485,-1.4527,-1.4498,-1.4501,-1.4502,-1.4503,-1.4595,-1.4596,0,0,0,0,0,0,-1.4346,-1.4354,-1.4414,-1.4417,-1.4377,-1.4408,-1.4413,-1.4428,-1.4454,-1.4457,-1.4437,-1.4436,-1.4478,-1.4482,-1.4487,-1.4526,-1.4501,-1.4503,-1.4505,-1.4594,-1.4595,-1.4596,0,0,0,0,0,0,-1.4345,-1.4352,-1.4413,-1.4386,-1.4393,-1.441,-1.4427,-1.4429,-1.444,-1.4458,-1.4461,-1.4445,-1.4477,-1.4483,-1.4513,-1.4527,-1.4505,-1.4507,-1.4593,-1.4595,-1.4596,-1.4603,0,0,0,0,0,0,-1.4342,-1.4351,-1.4363,-1.4386,-1.4395,-1.4439,-1.4427,-1.443,-1.4444,-1.4443,-1.4467,-1.447,-1.4477,-1.451,-1.4516,-1.453,-1.4509,-1.4592,-1.4594,-1.4595,-1.4602,-1.4605,-1.4607,0,0,0,0,0,-1.4339,-1.4364,-1.4364,-1.4371,-1.4411,-1.4439,-1.4444,-1.4453,-1.4445,-1.4458,-1.447,-1.4469,-1.4525,-1.4513,-1.452,-1.4535,-1.4591,-1.4593,-1.4595,-1.4601,-1.4604,-1.4607,0,0,0,0,0,0,-1.4343,-1.4367,-1.4367,-1.44,-1.4418,-1.4439,-1.4455,-1.4456,-1.4476,-1.4475,-1.4484,-1.449,-1.4519,-1.453,-1.4517,-1.4567,-1.4557,-1.4561,-1.4559,-1.4562,-1.4565,-1.4561,-1.4511,0,0,0,0,0,-1.4347,-1.4369,-1.4389,-1.4416,-1.4424,-1.4438,-1.4451,-1.4456,-1.4475,-1.4482,-1.4496,-1.4514,-1.4536,-1.455,-1.4571,-1.4604,-1.4608,-1.4618,-1.462,-1.4622,-1.4625,-1.4643,-1.4647,-1.4603,-1.4603,-1.4603,0,0,-1.4357,-1.4373,-1.4386,-1.4417,-1.4431,-1.4452,-1.4445,-1.4468,-1.4484,-1.4486,-1.4514,-1.4526,-1.4546,-1.4578,-1.4592,-1.4588,-1.4638,-1.4625,-1.4627,-1.4628,-1.4645,-1.4649,-1.4653,-1.4605,-1.4604,-1.4604,0,0,-1.4386,-1.44,-1.4424,-1.4438,-1.4459,-1.4468,-1.4474,-1.4496,-1.4503,-1.4532,-1.4534,-1.4553,-1.459,-1.4605,-1.4617,-1.465,-1.465,-1.4657,-1.4671,-1.4688,-1.4691,-1.4694,-1.4705,-1.4709,-1.466,-1.466,-1.466,0,-1.4395,-1.4427,-1.4436,-1.4459,-1.4472,-1.4475,-1.4498,-1.4512,-1.4539,-1.4548,-1.4543,-1.4589,-1.4603,-1.4638,-1.4646,-1.4656,-1.4662,-1.4654,-1.469,-1.4693,-1.4696,-1.4707,-1.4711,-1.4661,-1.4661,-1.466,-1.466,0,-1.4438,-1.446,-1.4477,-1.4502,-1.4518,-1.4541,-1.4553,-1.4567,-1.4571,-1.458,-1.461,-1.4627,-1.4651,-1.466,-1.4664,-1.4695,-1.4691,-1.4688,-1.4678,-1.4701,-1.4711,-1.4715,-1.4661,-1.4661,-1.4661,-1.4661,0,0,-1.4469,-1.4499,-1.4505,-1.4516,-1.454,-1.4557,-1.4581,-1.4604,-1.4616,-1.4635,-1.4654,-1.4686,-1.4682,-1.4696,-1.4702,-1.4717,-1.4741,-1.4711,-1.4712,-1.4716,-1.4776,-1.4778,-1.4782,-1.4742,-1.4743,-1.4743,-1.4774,0,-1.45,-1.4541,-1.4549,-1.4585,-1.4605,-1.4608,-1.4628,-1.4645,-1.4654,-1.4673,-1.4684,-1.4706,-1.47,-1.4708,-1.4723,-1.4735,-1.4753,-1.4733,-1.4759,-1.476,-1.4753,-1.4788,-1.479,-1.4818,-1.4778,-1.4779,-1.4779,0,-1.4541,-1.456,-1.4598,-1.4618,-1.4627,-1.4645,-1.4666,-1.4685,-1.4703,-1.4709,-1.4725,-1.4728,-1.4752,-1.4742,-1.4775,-1.4761,-1.4772,-1.478,-1.4781,-1.4783,-1.4771,-1.479,-1.4827,-1.4831,-1.4786,-1.4785,-1.4785,0,-1.4559,-1.4595,-1.4621,-1.4631,-1.4656,-1.4668,-1.4679,-1.4697,-1.471,-1.4729,-1.4738,-1.476,-1.4772,-1.4788,-1.4798,-1.4789,-1.483,-1.482,-1.4835,-1.4835,-1.4843,-1.4842,-1.4882,-1.4852,-1.4852,-1.4852,-1.4851,0,-1.4592,-1.4615,-1.463,-1.4646,-1.4672,-1.4681,-1.4706,-1.4717,-1.4732,-1.4751,-1.4755,-1.4772,-1.4784,-1.4803,-1.481,-1.4836,-1.4842,-1.4847,-1.4848,-1.4846,-1.4845,-1.4853,-1.4851,-1.4853,-1.4852,-1.4852,-1.4852,0,-1.4617,-1.4628,-1.4657,-1.4678,-1.4683,-1.4701,-1.4719,-1.4735,-1.4744,-1.4768,-1.4774,-1.4789,-1.4811,-1.4822,-1.485,-1.4855,-1.4884,-1.4885,-1.4878,-1.4878,-1.4892,-1.489,-1.4937,-1.4944,-1.491,-1.491,-1.4911,0,-1.4636,-1.4654,-1.4676,-1.4688,-1.4699,-1.472,-1.4733,-1.4743,-1.4757,-1.4779,-1.4792,-1.4815,-1.4833,-1.4869,-1.4882,-1.4903,-1.4904,-1.4919,-1.4908,-1.4904,-1.4904,-1.4902,-1.4904,-1.4921,-1.4921,-1.4922,-1.4922,0,-1.467,-1.4675,-1.4694,-1.4715,-1.473,-1.4747,-1.4764,-1.4774,-1.4787,-1.4802,-1.4825,-1.4839,-1.4867,-1.4889,-1.4912,-1.4923,-1.4924,-1.4926,-1.493,-1.4927,-1.4922,-1.4924,-1.4883,-1.4924,-1.4924,-1.4924,-1.4924,-1.4924,-1.4693,-1.4708,-1.4726,-1.4746,-1.476,-1.4775,-1.4791,-1.4803,-1.4822,-1.4845,-1.485,-1.4874,-1.4892,-1.4921,-1.4933,-1.4952,-1.4949,-1.4955,-1.4957,-1.4958,-1.4958,-1.492,-1.4956,-1.4956,-1.4956,-1.4956,-1.4956,0,-1.4726,-1.4737,-1.4756,-1.4779,-1.4796,-1.4796,-1.4814,-1.4828,-1.4849,-1.4865,-1.4883,-1.4909,-1.493,-1.4945,-1.4967,-1.4979,-1.498,-1.4984,-1.4983,-1.4985,-1.4961,-1.4954,-1.4983,-1.4983,-1.4983,-1.4983,-1.4983,-1.4983,-1.4745,-1.477,-1.4777,-1.4809,-1.4821,-1.4844,-1.4854,-1.4868,-1.4881,-1.491,-1.4927,-1.4937,-1.4953,-1.4975,-1.4995,-1.4999,-1.5006,-1.501,-1.5014,-1.499,-1.4987,-1.4985,-1.4978,-1.5012,-1.5012,-1.5037,-1.5037,-1.5037]},{"header":{"parameterUnit":"m.s-1","parameterCategory":1,"la1":30.2991,"la2":30.254,"lo1":-89.0895,"lo2":-89.0444,"dy":0.0017,"dx":0.0017,"nx":28,"ny":28,"refTime":"2024-03-30T09:00:00:Z","depth":0,"parameterNumber":3,"parameterNumberName":"V-component_of_WINDS"},"data":[0,0,0,0,0,0,0,0,0,0,0,0,0,0,0,0,0,0,0,0,0,0,0,0,0,0,0,0,0,0,0,0,0,0,0,0,0,0,0,0,0,0,0,0,0,0,0,0,0,0,0,0,0,0,0,0,0,0,3.1554,3.1555,0,3.1673,3.1674,3.1675,3.1683,3.1682,3.1681,3.1679,3.1802,3.1806,3.181,0,0,0,0,0,0,0,0,0,0,0,0,0,3.1334,3.1338,3.1554,3.1555,3.1557,3.1672,3.1674,3.1676,3.1684,3.1682,3.168,3.1679,3.18,3.1805,3.1811,0,0,0,0,0,0,0,0,0,0,0,0,0,3.1438,3.1339,3.1553,3.1575,3.1578,3.1672,3.1674,3.1676,3.1684,3.1682,3.168,3.1678,3.1798,3.1805,3.1811,3.1893,0,0,3.1832,3.1835,0,0,0,0,0,0,0,0,3.1433,3.1447,3.157,3.1573,3.1577,3.1661,3.1641,3.1749,3.1684,3.1644,3.1679,3.1677,3.1756,3.1766,3.1793,3.1899,3.1904,3.1833,3.1837,3.184,3.1842,0,0,0,0,0,0,0,3.1425,3.1441,3.1601,3.1572,3.1576,3.1578,3.1591,3.1662,3.171,3.1647,3.1648,3.1662,3.1758,3.1787,3.1796,3.1906,3.1832,3.1838,3.1843,3.1845,3.2085,3.2087,0,0,0,0,0,0,3.1414,3.1435,3.1597,3.1604,3.1498,3.1584,3.1598,3.1636,3.1709,3.1718,3.1663,3.1662,3.1776,3.1788,3.18,3.1901,3.184,3.1846,3.185,3.2082,3.2085,3.2088,0,0,0,0,0,0,3.1409,3.1428,3.1592,3.152,3.1541,3.159,3.1632,3.1639,3.1668,3.1721,3.173,3.1684,3.1775,3.1791,3.187,3.1906,3.1849,3.1855,3.208,3.2083,3.2087,3.2104,0,0,0,0,0,0,3.1403,3.1426,3.1458,3.1521,3.1545,3.166,3.1635,3.1643,3.168,3.1679,3.1743,3.1752,3.1775,3.186,3.1877,3.1914,3.186,3.2077,3.2081,3.2085,3.21,3.2107,3.2113,0,0,0,0,0,3.1395,3.1458,3.146,3.1479,3.1585,3.1662,3.1676,3.1701,3.1683,3.1715,3.1749,3.175,3.1899,3.1868,3.1887,3.1927,3.2075,3.208,3.2085,3.2097,3.2106,3.2113,0,0,0,0,0,0,3.1398,3.1467,3.1469,3.1554,3.1602,3.1663,3.1705,3.1709,3.1763,3.176,3.1789,3.1803,3.1882,3.1912,3.1876,3.201,3.1985,3.1994,3.1987,3.1996,3.2003,3.1994,3.1866,0,0,0,0,0,3.1409,3.1465,3.1522,3.1592,3.1616,3.1656,3.169,3.1705,3.1756,3.1776,3.1816,3.1866,3.1924,3.1961,3.2018,3.2104,3.2118,3.2141,3.2147,3.2152,3.216,3.2209,3.222,3.2105,3.2105,3.2105,0,0,3.1432,3.1476,3.151,3.1594,3.1632,3.169,3.1673,3.1735,3.1778,3.1786,3.1863,3.1894,3.1951,3.2034,3.2073,3.2062,3.2195,3.2159,3.2163,3.2168,3.2215,3.2226,3.2236,3.2108,3.2108,3.2107,0,0,3.1503,3.1542,3.1604,3.1644,3.1703,3.1729,3.1744,3.1804,3.1825,3.1903,3.191,3.1962,3.2061,3.2102,3.2135,3.2221,3.2224,3.2238,3.2274,3.232,3.233,3.2338,3.2369,3.238,3.2246,3.2246,3.2246,0,3.1524,3.1611,3.1636,3.1698,3.1735,3.1744,3.1808,3.1845,3.1919,3.1945,3.1931,3.2056,3.2095,3.2188,3.2209,3.2235,3.2254,3.2232,3.2326,3.2335,3.2343,3.2373,3.2385,3.2248,3.2247,3.2247,3.2247,0,3.1634,3.1695,3.1739,3.181,3.1852,3.1914,3.1949,3.1988,3.1999,3.2027,3.2106,3.2153,3.2219,3.2242,3.2254,3.2337,3.2328,3.232,3.2296,3.2355,3.2384,3.2396,3.225,3.2249,3.2249,3.2248,0,0,3.1712,3.1796,3.1812,3.1845,3.191,3.1958,3.2021,3.2085,3.2118,3.2169,3.2223,3.2306,3.2299,3.2337,3.2353,3.2394,3.2461,3.2381,3.2383,3.2395,3.2556,3.2563,3.2576,3.2462,3.2465,3.2466,3.2552,0,3.1792,3.1904,3.1928,3.2025,3.2082,3.2091,3.2146,3.2192,3.2219,3.2271,3.2301,3.236,3.2346,3.2369,3.241,3.2444,3.2493,3.2438,3.2513,3.2516,3.25,3.2591,3.2598,3.2677,3.2563,3.2565,3.2566,0,3.1899,3.1953,3.2055,3.2114,3.2138,3.2187,3.2248,3.2298,3.235,3.2367,3.241,3.2421,3.2487,3.2459,3.255,3.2512,3.2544,3.2565,3.2569,3.2578,3.2546,3.2603,3.2702,3.2714,3.2584,3.2583,3.2582,0,3.1947,3.2044,3.2119,3.2146,3.2216,3.225,3.228,3.2331,3.2368,3.2422,3.2446,3.2506,3.254,3.2586,3.2614,3.259,3.2703,3.2677,3.272,3.272,3.2745,3.2743,3.2851,3.2763,3.2763,3.2763,3.2763,0,3.2034,3.2096,3.2141,3.2187,3.2257,3.2284,3.2353,3.2383,3.2428,3.248,3.2491,3.254,3.2573,3.2626,3.2648,3.2721,3.2736,3.2752,3.2757,3.2752,3.275,3.2774,3.277,3.2766,3.2765,3.2765,3.2764,0,3.2099,3.2131,3.2213,3.2272,3.2288,3.2338,3.2388,3.2433,3.246,3.2526,3.2543,3.2586,3.2649,3.2681,3.276,3.2774,3.2857,3.2858,3.284,3.2842,3.2884,3.288,3.3012,3.3031,3.2929,3.293,3.2931,0,3.2153,3.2202,3.2266,3.2301,3.2333,3.239,3.2428,3.2456,3.2495,3.2558,3.2596,3.2659,3.2712,3.2813,3.2851,3.2911,3.2915,3.2957,3.2924,3.2917,3.2917,3.2914,3.292,3.2963,3.2964,3.2965,3.2966,0,3.2246,3.2259,3.2314,3.2374,3.2419,3.2468,3.2516,3.2544,3.258,3.2623,3.2688,3.2729,3.2809,3.2873,3.2936,3.2967,3.2973,3.2976,3.2989,3.2985,3.2972,3.298,3.2857,3.2973,3.2972,3.2972,3.2971,3.2971,3.2308,3.2352,3.2404,3.2464,3.2503,3.2548,3.2593,3.2626,3.268,3.2748,3.2761,3.2829,3.2881,3.2966,3.2999,3.3054,3.3045,3.3064,3.3069,3.3074,3.3076,3.2962,3.3065,3.3065,3.3065,3.3065,3.3065,0,3.2402,3.2436,3.2491,3.2558,3.2605,3.2606,3.2659,3.2699,3.2759,3.2806,3.2858,3.2932,3.2994,3.3037,3.3099,3.3135,3.3139,3.315,3.3149,3.3156,3.308,3.3063,3.3146,3.3146,3.3146,3.3146,3.3146,3.3146,3.2457,3.2531,3.255,3.2644,3.2677,3.2745,3.2775,3.2817,3.2855,3.2937,3.2989,3.3016,3.3062,3.3128,3.3184,3.3195,3.3218,3.323,3.3241,3.317,3.3161,3.3153,3.3137,3.3234,3.3234,3.3312,3.3313,3.3314]}]]